User: anonymous   Login
Location: Centreville
(38.8333°N, 77.4295°W)
Time: 09:54:31
(UTC-05:00)
Language:

DX 1 - Orbit

View from above orbital plane
View from above orbital plane
View from above satellite
View from above satellite

Ground track
Ground track

The orbit data is extracted from the following two-line orbital elements,

1 40071U 14037C   19321.20321012  .00000082  00000-0  18075-4 0  9999
2 40071  98.4430 123.0010 0009598  98.2575 261.9713 14.81308599289686
Epoch (UTC): 17 November 2019 04:52:37
Eccentricity: 0.0009598
inclination: 98.4430°
perigee height: 618 km
apogee height: 632 km
right ascension of ascending node: 123.0010°
argument of perigee: 98.2575°
revolutions per day: 14.81308599
mean anomaly at epoch: 261.9713°
orbit number at epoch: 28968

The dashed part of the orbit path shows where the satellite is in the earth's shadow,  

DLR